Location: Aldenham
(51.6667°N, 0.3500°W)
Time: 06:47:31
(UTC+00:00)

Cosmos 1782 Rocket - Pass Details

Date: 18 November 2025
Orbit: 599 x 626 km, 82.5° (Epoch: 12 December)

Event Time Altitude Azimuth Distance (km) Brightness Sun altitude
Rises 17:24:41 0° 198° (SSW) 2,900 7.5 -11.8°
Reaches altitude 10° 17:26:55 10° 201° (SSW) 1,997 6.7 -12.1°
Maximum altitude 17:31:19 63° 283° (WNW) 699 4.1 -12.8°
Drops below altitude 10° 17:35:44 10° 5° (N) 2,003 6.0 -13.5°
Sets 17:37:59 0° 9° (N) 2,910 6.8 -13.8°
